Other Public Products
Issued by NWS Charleston, SC

Current Version | Previous Version | Graphics & Text | Print | Product List | Glossary On
Versions: 1 2 3 4 5 6 7 8 9 10 11 12 13 14 15 16 17 18 19 20 21 22 23 24 25 26 27 28 29 30 31 32 33 34 35 36 37 38 39 40 41 42 43 44 45 46 47 48 49 50
678 FPUS82 KCHS 271112 OPUCHS TEST...KCHS/KSAV Gateway Observations...TEST National Weather Service Charleston SC 700 AM EDT MON MAR 27 2017 NOTE: "fair" indicates few or no clouds below 12,000 feet with no significant weather and/or obstructions to visibility. SCZ050-WAZ558-NCZ071-TXZ119-213-PAZ071-DCZ001-FLZ074-172-MI076- NYZ176-178-MAZ016-IL014-TNZ027-NJZ106-GAZ044-MD014-271200- ...Gateway Observations for Charleston International... CITY SKY/WX TMP DP RH WIND PRES REMARKS Chas Airport CLEAR 58 55 90 CALM 30.12R Seattle MOCLDY 44 42 93 S9 29.90R Charlotte LGT RAIN 60 56 86 S5 30.11S Dallas DFW CLOUDY 68 58 70 NW13 29.80R Dallas Love CLOUDY 70 63 78 W5 29.81R Philladelphia FOG 43 42 97 E6 30.11F VSB 3/4 Wash National DRZL/FOG 48 48 100 N3 30.11S VSB 1/2 Baltimore FOG 44 44 100 CALM 30.10F VSB 1/2 Miami PTCLDY 67 59 75 CALM 30.03R Detroit CLOUDY 52 50 93 SW6 29.89F FOG Newark DRZL/FOG 40 40 100 N6 30.14F VSB 1/2 WCI 36 Laguardia LGT RAIN 40 37 89 NE12 30.14F VSB 1/2 WCI 33 J F K DRZL/FOG 42 42 100 E7 30.15F VSB 1/2 Boston Logan DRZL/FOG 38 38 100 E12 30.25F VSB 3/4 WCI 30 Ft. Lauderdale PTCLDY 67 60 78 NW3 30.02R Chicago O`Hare DRIZZLE 50 48 93 NW7 29.90R FOG Chicago Midway CLOUDY 50 49 96 SW7 29.91R FOG Houston Bush CLOUDY 71 68 90 S6 29.85F Houston Hobby CLOUDY 72 69 90 S6 29.85S Nashville MOCLDY 60 54 80 SE3 29.96R Atlanta CLOUDY 60 58 92 S5 30.07R $$ GAZ044-118-TXZ119-213-NCZ071-DCZ001-MDZ014-506-PAZ021-071-NJZ106- NYZ176-178-MAZ106-OHZ011-021-055-MIZ076-KYZ091-ILZ014-INZ047- MNZ060-ONZ431-271200- ...Gateway Observations for Savannah International... CITY SKY/WX TMP DP RH WIND PRES REMARKS Savannah Arpt PTCLDY 58 55 90 CALM 30.12R Atlanta CLOUDY 60 58 92 S5 30.07R Charlotte LGT RAIN 60 56 86 S5 30.11S Dallas DFW CLOUDY 68 58 70 NW13 29.80R Houston Bush CLOUDY 71 68 90 S6 29.85F Wash National DRZL/FOG 48 48 100 N3 30.11S VSB 1/2 Wash Dulles FOG 46 45 96 S3 30.08F VSB 3/4 Baltimore FOG 44 44 100 CALM 30.10F VSB 1/2 Philadelphia FOG 43 42 97 E6 30.11F VSB 3/4 Newark DRZL/FOG 40 40 100 N6 30.14F VSB 1/2 WCI 36 Laguardia LGT RAIN 40 37 89 NE12 30.14F VSB 1/2 WCI 33 J F K DRZL/FOG 42 42 100 E7 30.15F VSB 1/2 Boston DRZL/FOG 38 38 100 E12 30.25F VSB 3/4 WCI 30 Pittsburg MOCLDY 55 54 96 SW6 29.96R Akron CLOUDY 53 49 86 SW7 29.95R Cleveland CLOUDY 56 50 80 SW9 29.95R Cincinnati PTCLDY 45 45 100 CALM 29.97S FOG Columbus PTCLDY 47 47 100 SW5 29.98R FOG Detroit CLOUDY 52 50 93 SW6 29.89F FOG Chicago O`Hare DRIZZLE 50 48 93 NW7 29.90R FOG Minneapolis CLOUDY 38 34 85 N7 29.96S WCI 33 Indianapolis PTCLDY 47 46 97 S5 29.95R Toronto Canada CLOUDY 43 43 100 SE3 29.87R FOG $$

USA.gov is the U.S. government's official web portal to all federal, state and local government web resources and services.